This demonstration page uses our WeatherBlox Daily Observations layout. Learn more.

40.92945, -100.16068

Hourly Observations for December 27, 2015

Temp ( °F °C ) Dew Point ( °F °C ) Humidity (%) Winds ( mph kmh ) Pressure ( in mb ) Visibility ( mi km ) Precip ( " mm )
12:15 am 00:15 Cloudy 20 -6.5 16 -8.9 83 83 NNW 15 24 30.62 1037 10 16.0934 N/A
12:35 am 00:35 Cloudy 20 -6.5 16 -9 83 83 NNW 13 20 30.62 1037 10 16.0934 N/A
12:55 am 00:55 Cloudy 20 -6.5 16 -9 83 83 NNW 16 26 30.62 1037 10 16.0934 N/A
1:15 am 01:15 Cloudy 20 -6.5 15 -9.3 81 81 NNW 15 24 30.62 1037 10 16.0934 N/A
1:35 am 01:35 Mostly Cloudy 18 -7.6 13 -10.5 80 80 NW 13 20 30.62 1037 10 16.0934 N/A
1:55 am 01:55 Clear 17 -8.5 12 -11.1 82 82 NW 12 19 30.62 1037 10 16.0934 N/A
2:15 am 02:15 Clear 15 -9.3 11 -11.6 84 84 NW 10 17 30.62 1037 10 16.0934 N/A
2:35 am 02:35 Clear 14 -10.1 10 -12.4 83 83 NNW 10 17 30.59 1036 10 16.0934 N/A
2:55 am 02:55 Clear 14 -10.2 10 -12.4 84 84 NNW 9 15 30.65 1038 10 16.0934 N/A
3:15 am 03:15 Clear 14 -10.1 10 -12.5 83 83 NW 8 13 30.65 1038 10 16.0934 N/A
3:35 am 03:35 Clear 13 -10.5 9 -12.8 83 83 NNW 10 17 30.65 1038 10 16.0934 N/A
3:55 am 03:55 Clear 14 -9.9 10 -12.4 82 82 NNW 10 17 30.65 1038 10 16.0934 N/A
4:15 am 04:15 Clear 14 -10.1 9 -12.6 82 82 N 5 7 30.68 1039 10 16.0934 N/A
4:35 am 04:35 Clear 11 -11.4 7 -13.7 83 83 N 5 7 30.68 1039 10 16.0934 N/A
4:55 am 04:55 Clear 10 -12.4 6 -14.6 84 84 NNW 9 15 30.68 1039 10 16.0934 N/A
5:15 am 05:15 Partly Cloudy 10 -12.1 6 -14.4 83 83 Calm 30.71 1040 10 16.0934 N/A
5:35 am 05:35 Clear 7 -14 3 -16.1 84 84 W 5 7 30.74 1041 10 16.0934 N/A
5:55 am 05:55 Clear 8 -13.1 5 -14.9 87 87 NW 7 11 30.74 1041 10 16.0934 N/A
6:15 am 06:15 Clear 8 -13.3 5 -15.1 86 86 NW 5 7 30.74 1041 10 16.0934 N/A
6:35 am 06:35 Clear 6 -14.2 3 -16.2 85 85 NW 8 13 30.74 1041 10 16.0934 N/A
6:55 am 06:55 Clear 6 -14.3 3 -16.1 86 86 NW 10 17 30.74 1041 10 16.0934 N/A
7:15 am 07:15 Clear 6 -14.2 3 -16 86 86 NW 5 7 30.74 1041 10 16.0934 N/A
7:35 am 07:35 Clear 7 -13.8 4 -15.6 86 86 NW 5 7 30.74 1041 10 16.0934 N/A
7:55 am 07:55 Clear 5 -15.1 2 -16.9 86 86 NW 9 15 30.71 1040 10 16.0934 N/A
8:15 am 08:15 Sunny 6 -14.4 3 -16.1 87 87 NW 9 15 30.71 1040 10 16.0934 N/A
8:35 am 08:35 Sunny 8 -13.6 4 -15.5 86 86 NW 7 11 30.71 1040 10 16.0934 N/A
8:55 am 08:55 Sunny 8 -13.3 4 -15.3 85 85 WNW 5 7 30.71 1040 10 16.0934 N/A
9:15 am 09:15 Sunny 9 -12.6 6 -14.5 86 86 WNW 3 6 30.71 1040 10 16.0934 N/A
9:35 am 09:35 Sunny 12 -11.1 8 -13.2 85 85 NW 7 11 30.71 1040 10 16.0934 N/A
9:55 am 09:55 Sunny 14 -10.2 9 -13 80 80 WNW 5 7 30.71 1040 10 16.0934 N/A
10:15 am 10:15 Sunny 15 -9.5 9 -12.7 78 78 NW 7 11 30.68 1039 10 16.0934 N/A
10:35 am 10:35 Sunny 16 -8.7 10 -12.1 77 77 NW 5 7 30.68 1039 10 16.0934 N/A
10:55 am 10:55 Sunny 19 -7.2 11 -11.7 71 71 NNW 8 13 30.68 1039 10 16.0934 N/A
11:15 am 11:15 Sunny 20 -6.8 11 -11.7 68 68 N 9 15 30.68 1039 10 16.0934 N/A
11:35 am 11:35 Sunny 20 -6.4 11 -11.5 67 67 NNW 9 15 30.65 1038 10 16.0934 N/A
11:55 am 11:55 Sunny 21 -5.9 12 -11.2 67 67 N 7 11 30.65 1038 10 16.0934 N/A
12:15 pm 12:15 Sunny 22 -5.5 13 -10.8 67 67 N 6 9 30.65 1038 10 16.0934 N/A
12:35 pm 12:35 Sunny 23 -5.2 13 -10.5 67 67 NNE 8 13 30.62 1037 10 16.0934 N/A
12:55 pm 12:55 Sunny 22 -5.5 12 -11.2 65 65 N 10 17 30.62 1037 10 16.0934 N/A
1:15 pm 13:15 Sunny 22 -5.5 12 -10.9 66 66 N 8 13 30.62 1037 10 16.0934 N/A
1:35 pm 13:35 Sunny 22 -5.3 13 -10.7 66 66 N 9 15 30.59 1036 10 16.0934 N/A
1:55 pm 13:55 Sunny 23 -5 13 -10.4 66 66 N 9 15 30.56 1035 10 16.0934 N/A
2:15 pm 14:15 Sunny 23 -4.8 14 -10.1 67 67 NNE 10 17 30.56 1035 10 16.0934 N/A
2:35 pm 14:35 Sunny 24 -4.7 14 -9.9 67 67 N 9 15 30.56 1035 10 16.0934 N/A
2:55 pm 14:55 Sunny 23 -4.8 15 -9.7 69 69 N 12 19 30.56 1035 10 16.0934 N/A
3:15 pm 15:15 Sunny 23 -5.1 14 -10 69 69 NNE 8 13 30.56 1035 10 16.0934 N/A
3:35 pm 15:35 Sunny 23 -5.2 14 -10 69 69 NNE 5 7 30.56 1035 10 16.0934 N/A
3:55 pm 15:55 Sunny 22 -5.3 15 -9.7 72 72 N 7 11 30.56 1035 10 16.0934 N/A
4:15 pm 16:15 Sunny 22 -5.5 15 -9.5 74 74 N 6 9 30.53 1034 10 16.0934 N/A
4:35 pm 16:35 Sunny 22 -5.6 15 -9.5 74 74 N 6 9 30.53 1034 10 16.0934 N/A
4:55 pm 16:55 Sunny 21 -6 15 -9.7 75 75 N 3 6 30.56 1035 10 16.0934 N/A
5:15 pm 17:15 Sunny 20 -6.6 14 -10 77 77 NNW 5 7 30.53 1034 10 16.0934 N/A
5:35 pm 17:35 Clear 20 -6.6 14 -10 77 77 Calm 30.53 1034 10 16.0934 N/A
5:55 pm 17:55 Clear 19 -7.2 13 -10.6 77 77 NNW 6 9 30.53 1034 10 16.0934 N/A
6:15 pm 18:15 Clear 17 -8.1 13 -10.7 82 82 WNW 3 6 30.56 1035 10 16.0934 N/A
6:35 pm 18:35 Clear 16 -8.7 12 -11.1 83 83 Calm 30.56 1035 10 16.0934 N/A
6:55 pm 18:55 Clear 17 -8.4 13 -10.7 84 84 NW 5 7 30.56 1035 10 16.0934 N/A
7:15 pm 19:15 Clear 15 -9.6 11 -11.7 85 85 Calm 30.56 1035 10 16.0934 N/A
7:35 pm 19:35 Clear 15 -9.7 11 -11.4 88 88 NW 3 6 30.56 1035 10 16.0934 N/A
7:55 pm 19:55 Clear 14 -10 11 -11.5 89 89 Calm 30.56 1035 10 16.0934 N/A
8:15 pm 20:15 Clear 14 -10.2 11 -11.8 88 88 NNW 3 6 30.56 1035 10 16.0934 N/A
8:35 pm 20:35 Clear 12 -11.1 9 -12.7 88 88 Calm 30.59 1036 10 16.0934 N/A
8:55 pm 20:55 Clear 14 -10 11 -11.4 90 90 Calm 30.56 1035 10 16.0934 N/A
9:15 pm 21:15 Clear 12 -11 10 -12.5 89 89 N 5 7 30.56 1035 10 16.0934 N/A
9:35 pm 21:35 Clear 14 -9.8 11 -11.7 86 86 NNW 3 6 30.53 1034 10 16.0934 N/A
9:55 pm 21:55 Clear 15 -9.3 12 -11.1 87 87 N 3 6 30.53 1034 10 16.0934 N/A
10:15 pm 22:15 Clear 14 -9.9 11 -11.7 87 87 N 5 7 30.5 1033 10 16.0934 N/A
10:35 pm 22:35 Clear 14 -10.1 10 -12 86 86 NNE 5 7 30.5 1033 10 16.0934 N/A
10:55 pm 22:55 Clear 15 -9.7 11 -11.7 86 86 NNE 6 9 30.5 1033 10 16.0934 N/A
11:15 pm 23:15 Clear 15 -9.6 11 -11.7 85 85 NNE 3 6 30.5 1033 10 16.0934 N/A
11:35 pm 23:35 Clear 14 -9.9 10 -12.1 84 84 N 5 7 30.5 1033 10 16.0934 N/A
11:55 pm 23:55 Clear 15 -9.3 11 -11.5 84 84 NNE 6 9 30.48 1032 10 16.0934 N/A

Powered by AerisWeather